User: anonymous   Login
Location: Roanoke
(37.2710°N, 79.9420°W)
Time: 16:30:45
(UTC-04:00)
Language:

FENGYUN 3A - Orbit

View from above orbital plane
View from above orbital plane
View from above satellite
View from above satellite

Ground track
Ground track

The orbit data is extracted from the following two-line orbital elements,

1 32958U 08026A   18143.13113446  .00000017  00000-0  27164-4 0  9995
2 32958  98.3826 159.3203 0010211  19.3633 340.7930 14.19704048517566
Epoch (UTC): 23 May 2018 03:08:50
Eccentricity: 0.0010211
inclination: 98.3826°
perigee height: 819 km
apogee height: 834 km
right ascension of ascending node: 159.3203°
argument of perigee: 19.3633°
revolutions per day: 14.19704048
mean anomaly at epoch: 340.7930°
orbit number at epoch: 51756

The dashed part of the orbit path shows where the satellite is in the earth's shadow,  

DLR